Simultaneous Nadir Overpasses (SNOs) Predictions

Prediction of SNOs between GOES-16 and LANDSAT-8 Satellite Orbit:

Table of predicted SNOs for the next 14.0 days since TLE Epoch: 12/14/2024
Index Date Time (GOES-16) GOES-16 Lat,Lon LANDSAT-8 Lat,Lon Distance(km) Time Diff (sec)
1 12/14/2024 15:12:36 -0.02, -75.20 -0.01, -75.39 21.18 80
2 12/16/2024 15:03:05 -0.02, -75.20 -0.61, -72.43 315.05 80
3 12/17/2024 03:24:29 0.02, -75.17 -0.52, -77.62 278.53 80
4 12/19/2024 03:09:38 0.01, -75.18 0.11, -74.67 58.78 80
5 12/21/2024 02:57:27 0.01, -75.20 0.77, -71.71 397.20 80
6 12/21/2024 15:18:42 -0.01, -75.24 0.36, -76.86 185.16 80
7 12/23/2024 15:09:10 -0.00, -75.27 -0.27, -73.90 154.49 80
8 12/24/2024 03:30:34 0.00, -75.25 -0.83, -79.10 437.96 80
9 12/25/2024 14:56:58 0.00, -75.30 -0.91, -70.95 494.71 80
10 12/26/2024 03:18:22 -0.00, -75.28 -0.18, -76.14 97.60 80
